User: anonymous   Login
Location: Niverville
(49.6028°N, 97.0419°W)
Time: 13:30:00
(UTC-05:00)
Language:

Cosmos 2237 Rocket - Orbit

View from above orbital plane
View from above orbital plane
View from above satellite
View from above satellite

Ground track
Ground track

The orbit data is extracted from the following two-line orbital elements,

1 22566U 93016B   16237.42750928  .00000109  00000-0  80872-4 0  9995
2 22566  71.0100 329.8347 0012011 232.9174 127.0851 14.14932690209296
Epoch (UTC): 24 August 2016 10:15:36
Eccentricity: 0.0012011
inclination: 71.0100°
perigee height: 834 km
apogee height: 851 km
right ascension of ascending node: 329.8347°
argument of perigee: 232.9174°
revolutions per day: 14.14932690
mean anomaly at epoch: 127.0851°
orbit number at epoch: 20929

The dashed part of the orbit path shows where the satellite is in the earth's shadow,  

DLR